User: anonymous   Login
Location: Unspecified
(0.0000°N, 0.0000°E)
Time: 06:41:28
(UTC+00:00)
Language:

Altair - Orbit

View from above orbital plane
View from above orbital plane
View from above satellite
View from above satellite

Ground track
Ground track

The orbit data is extracted from the following two-line orbital elements,

1 00050U 60009B   14329.39468865 -.00000107  00000-0 -19995-3 0  1424
2 00050 047.2321 304.8958 0113681 032.3287 328.4406 12.20087276422693
Epoch (UTC): 25 November 2014 09:28:21
Eccentricity: 0.0113681
inclination: 47.2321°
perigee height: 1501 km
apogee height: 1683 km
right ascension of ascending node: 304.8958°
argument of perigee: 32.3287°
revolutions per day: 12.20087276
mean anomaly at epoch: 328.4406°
orbit number at epoch: 42269

The dashed part of the orbit path shows where the satellite is in the earth's shadow,  

DLR